Wind_Speed
40 41 41 39 38 37 37 37 37 37 37 38 39 41 43 45 47 47 48 48 49 49 47 46 45 43 41 41 45 43 41 44 48 45 44 37 32 28 23 19 26 19 22
37 37 37 37 36 36 35 35 35 36 38 40 42 45 47 47 46 46 48 49 49 49 49 47 45 42 42 42 45 46 49 46 53 44 45 44 32 30 29 28 20 21 23
37 34 35 36 36 36 36 37 38 40 41 43 45 47 48 50 50 50 49 48 48 48 49 49 47 45 42 42 46 50 49 51 50 54 48 47 40 33 32 29 26 23 23
35 33 34 35 36 37 38 39 41 42 45 47 49 50 52 51 50 49 49 49 48 48 46 46 46 45 44 42 45 50 53 48 48 51 55 53 44 37 35 34 29 27 24
34 37 40 37 36 37 40 42 44 47 49 51 53 53 52 51 52 51 48 47 46 42 41 42 43 43 44 43 43 44 48 46 45 45 55 59 56 43 39 38 34 32 29
37 40 41 39 40 41 44 46 50 52 54 54 55 54 52 52 49 48 46 43 39 38 40 40 41 42 43 42 42 42 40 42 41 44 51 61 64 54 45 41 38 35 32
45 46 46 41 40 44 48 52 54 56 55 54 54 52 50 50 47 47 46 45 47 47 48 49 45 41 41 40 38 37 35 38 40 40 44 57 62 62 52 45 42 37 36
43 46 43 46 46 50 53 56 57 57 55 53 50 49 50 50 50 51 52 53 54 55 55 52 44 43 41 39 38 35 33 36 38 38 38 43 62 69 55 47 43 40 37
49 45 55 52 52 56 58 58 58 58 52 49 49 50 52 52 53 53 54 57 60 60 55 48 42 39 41 40 38 36 34 33 36 36 32 36 50 59 54 53 45 44 42
53 54 55 56 57 59 59 59 58 52 51 50 52 53 53 57 60 60 56 53 49 47 45 43 41 39 39 39 38 36 35 34 33 32 34 30 31 53 56 51 50 48 49
56 58 58 58 60 62 61 57 54 53 52 53 53 56 60 59 53 48 45 43 43 42 41 41 39 38 38 37 35 34 32 32 34 33 31 31 34 29 41 54 54 49 51
59 58 59 61 61 59 56 54 54 55 54 56 60 59 54 50 48 46 44 44 42 40 38 37 37 37 38 38 37 34 33 33 32 33 31 29 32 33 30 28 43 47 46
57 58 59 60 56 54 54 54 54 57 58 57 56 54 54 53 52 50 48 45 42 38 38 37 36 36 36 37 37 37 36 34 33 33 32 32 31 33 35 33 26 34 47
55 54 54 53 51 53 53 55 58 58 58 58 59 60 59 58 56 53 50 47 43 39 38 36 36 36 36 35 36 37 37 37 36 35 35 37 36 34 34 36 40 33 38
50 48 47 47 47 48 50 53 56 58 59 58 57 56 56 54 54 54 51 47 43 40 37 35 36 35 34 34 34 35 37 38 38 37 36 37 39 38 36 36 37 34 28
42 42 44 47 50 51 51 50 48 48 50 52 52 51 50 50 50 47 46 44 41 39 36 35 34 34 33 33 33 33 34 36 37 37 37 38 39 41 40 38 37 38 31
44 48 49 47 45 40 40 44 42 40 40 41 42 43 41 40 38 35 36 38 37 38 35 33 33 33 32 30 30 30 30 31 34 35 37 38 39 38 40 39 40 39 42
44 44 38 34 39 35 30 28 26 26 28 32 34 34 33 30 27 24 27 30 31 35 34 33 32 32 30 28 27 26 27 28 29 31 32 36 38 37 37 37 40 42 43
36 31 34 28 24 24 25 25 30 29 29 32 33 33 33 31 27 23 20 19 23 29 32 31 30 30 27 25 24 23 23 24 26 27 30 33 36 37 38 37 35 40 44
29 32 24 22 25 29 31 27 25 27 32 32 29 24 22 21 20 19 19 19 18 22 27 27 27 26 25 23 21 21 21 22 23 23 25 29 32 35 37 39 39 39 41
29 28 25 24 25 26 22 24 24 27 28 32 24 20 23 26 22 19 20 24 22 21 25 27 27 26 25 23 22 21 21 21 22 22 23 24 27 29 33 37 40 42 39
27 27 25 22 23 22 19 23 21 26 28 33 24 20 22 24 25 21 22 27 22 19 21 25 28 28 27 25 24 22 21 22 22 22 23 24 28 31 33 37 37 41 42
26 26 25 22 21 20 20 18 22 26 30 32 20 19 21 24 25 23 23 24 21 20 18 20 25 29 29 29 26 25 23 23 22 22 24 26 28 33 34 39 43 42 44
25 25 24 23 21 19 18 17 20 25 30 27 21 20 22 24 23 23 21 23 25 23 21 21 23 27 29 30 29 26 26 23 20 21 22 24 28 31 32 36 40 45 44
23 25 23 22 20 19 18 17 20 22 25 22 20 20 21 23 22 23 23 22 25 25 23 20 20 24 26 28 28 25 25 21 20 19 19 18 18 22 28 32 36 39 41
22 25 24 22 21 19 17 16 17 19 21 19 20 21 22 23 25 25 25 24 23 27 25 18 16 19 23 25 25 25 23 21 20 21 22 19 18 21 26 33 35 36 37
Wind_Direction
289 289 288 288 286 285 285 285 286 286 287 288 289 289 289 290 291 291 290 291 291 291 291 291 289 286 281 270 273 273 267 258 250 240 241 246 252 269 262 264 251 250 261
286 286 286 285 285 285 285 286 287 287 288 289 289 289 289 289 288 287 286 286 287 288 287 286 286 282 279 271 268 268 267 268 250 249 245 245 250 250 249 249 251 244 259
287 287 288 287 287 287 288 288 288 289 289 289 289 289 289 289 288 287 285 284 283 282 283 282 282 280 278 273 266 267 268 266 265 249 245 253 247 243 249 239 240 244 253
284 284 281 283 284 286 289 291 292 293 293 292 291 292 290 289 288 288 287 286 285 283 282 281 277 275 273 269 268 265 268 265 267 262 247 247 249 238 242 242 239 241 251
288 285 288 287 286 289 291 292 294 294 293 293 294 294 293 293 291 290 287 284 284 285 285 279 275 270 268 267 263 264 268 269 269 259 255 247 245 242 237 240 233 236 242
290 287 283 286 286 291 293 296 296 295 296 296 296 294 292 290 288 286 286 283 280 284 288 286 277 271 266 264 263 261 263 262 262 248 248 252 248 241 236 239 236 232 239
294 281 279 284 286 289 294 295 294 295 297 295 294 292 290 288 286 285 283 282 285 287 291 288 280 273 267 263 262 261 257 259 258 260 245 241 249 241 235 234 239 232 234
294 283 285 291 288 292 295 296 295 294 293 292 291 289 289 288 289 288 287 285 287 289 292 289 286 273 270 261 257 257 253 252 258 260 252 248 247 239 236 234 240 242 237
287 278 288 290 292 294 295 293 293 294 295 293 291 290 292 293 293 292 291 292 296 293 291 285 281 271 269 266 259 252 247 248 251 250 251 239 243 237 244 235 239 241 239
284 280 285 288 290 291 290 291 292 292 292 291 290 292 293 293 298 299 297 293 290 290 281 277 277 270 268 264 260 252 247 244 249 252 250 249 244 235 236 240 236 240 241
280 283 284 287 287 287 290 291 291 291 292 291 291 293 296 299 297 294 293 295 289 284 283 277 272 267 264 261 259 255 248 244 243 246 246 243 240 249 233 235 234 237 238
281 283 284 283 285 290 290 289 289 290 291 292 294 295 295 293 293 294 294 292 290 283 279 277 273 270 264 260 258 257 250 243 239 241 239 238 237 236 243 234 228 231 231
280 280 281 285 287 287 289 289 290 292 294 294 292 291 291 291 290 289 289 288 287 284 280 275 272 269 265 260 256 254 252 248 241 238 241 241 238 235 234 238 237 230 224
280 286 289 289 290 290 293 290 291 293 292 291 291 289 288 287 286 285 283 283 283 282 277 276 272 268 264 261 258 254 251 249 246 242 239 240 240 236 232 232 228 236 227
290 290 292 294 294 293 294 293 293 293 293 293 292 292 290 288 286 282 279 277 276 277 277 275 272 270 267 263 259 255 252 248 246 242 239 239 239 239 234 233 230 228 227
293 296 295 295 296 295 295 296 298 299 299 297 295 293 291 290 290 285 277 271 268 269 271 271 271 270 270 268 264 258 254 248 243 241 236 234 234 234 233 230 227 225 223
296 296 298 298 300 302 302 303 303 303 303 301 299 298 297 296 293 286 276 267 263 263 265 266 267 269 271 270 265 260 253 246 243 237 234 231 232 232 231 226 222 220 217
300 301 303 304 305 307 309 312 315 317 314 313 312 312 315 316 315 298 277 268 260 257 261 264 266 268 270 268 264 256 249 243 239 234 230 229 228 228 227 225 220 218 215
306 307 310 310 313 317 317 315 315 318 320 320 316 312 311 313 314 314 307 288 266 258 258 259 260 263 266 263 259 252 244 237 233 229 226 225 224 224 223 222 219 219 217
312 317 313 314 318 316 313 313 317 320 325 331 328 329 334 338 336 333 326 312 289 268 262 257 256 256 258 255 251 243 237 232 230 226 222 220 220 221 220 219 216 216 216
318 320 312 311 315 316 312 316 319 325 330 334 328 332 332 335 320 318 325 325 306 280 266 260 252 249 249 245 243 239 233 226 223 221 220 219 218 216 216 218 217 215 214
326 325 322 316 316 314 312 319 325 331 334 334 323 316 328 333 337 326 324 328 318 295 272 263 258 250 244 241 237 234 227 223 224 224 225 231 229 224 221 217 214 213 209
333 331 328 320 316 315 313 321 329 338 338 335 324 320 328 336 338 333 334 337 329 313 294 270 257 252 244 239 235 232 231 227 226 228 228 232 235 227 228 218 214 212 206
334 333 330 326 319 317 316 318 327 338 338 343 340 331 330 331 337 338 332 340 336 326 303 275 255 245 241 237 236 230 228 228 230 236 241 240 232 227 218 213 214 206 200
331 338 334 330 323 316 316 313 321 330 339 345 348 350 348 350 345 345 338 329 336 335 321 288 258 239 232 230 230 225 221 220 229 231 221 210 205 201 197 198 199 193 193
335 338 338 335 329 323 315 311 318 328 340 345 352 355 358 359 358 354 348 344 339 342 337 310 259 231 219 217 217 211 208 216 219 205 192 189 191 193 191 193 190 188 184
Height
5812 5809 5806 5804 5802 5800 5798 5796 5794 5792 5790 5788 5785 5783 5780 5778 5775 5772 5768 5765 5763 5760 5759 5758 5757 5757 5758 5759 5756 5755 5757 5759 5761 5762 5761 5765 5767 5766 5772 5773 5775 5777 5778
5802 5799 5797 5795 5793 5790 5788 5786 5784 5782 5780 5778 5775 5772 5770 5767 5764 5761 5758 5754 5751 5749 5747 5747 5745 5745 5745 5746 5745 5745 5745 5747 5749 5751 5750 5755 5758 5761 5765 5767 5769 5770 5772
5792 5790 5787 5785 5782 5780 5779 5777 5774 5772 5769 5766 5763 5760 5757 5754 5751 5748 5745 5742 5740 5738 5735 5734 5733 5732 5732 5732 5732 5732 5733 5735 5736 5740 5743 5745 5749 5752 5755 5760 5762 5764 5764
5783 5781 5780 5776 5773 5771 5769 5766 5763 5760 5757 5753 5750 5747 5743 5740 5738 5734 5732 5729 5727 5724 5723 5722 5721 5720 5720 5720 5719 5719 5720 5723 5724 5726 5731 5734 5736 5742 5746 5749 5754 5756 5758
5769 5768 5767 5766 5763 5761 5758 5754 5751 5748 5744 5740 5737 5733 5729 5726 5723 5720 5717 5715 5713 5711 5709 5708 5707 5707 5706 5706 5707 5707 5708 5708 5711 5712 5715 5721 5725 5729 5735 5739 5743 5747 5752
5758 5758 5758 5756 5752 5748 5744 5742 5738 5734 5730 5725 5721 5718 5715 5711 5709 5706 5703 5700 5698 5697 5696 5694 5693 5693 5693 5693 5693 5695 5695 5697 5698 5700 5704 5707 5712 5717 5724 5728 5732 5738 5742
5748 5747 5745 5743 5739 5735 5733 5729 5725 5722 5717 5711 5707 5704 5701 5698 5695 5693 5689 5686 5684 5682 5681 5679 5678 5678 5679 5679 5680 5681 5681 5682 5684 5686 5688 5691 5697 5705 5713 5718 5724 5727 5732
5735 5731 5733 5729 5725 5724 5719 5715 5712 5708 5704 5699 5694 5689 5687 5684 5681 5678 5674 5671 5669 5666 5663 5662 5662 5663 5665 5666 5667 5668 5670 5670 5671 5673 5676 5676 5682 5688 5698 5707 5716 5721 5724
5727 5722 5720 5716 5713 5709 5706 5702 5698 5694 5690 5686 5681 5677 5673 5669 5666 5663 5659 5656 5652 5649 5646 5646 5647 5647 5649 5650 5653 5656 5658 5659 5661 5664 5665 5663 5670 5676 5683 5693 5701 5709 5716
5715 5711 5707 5704 5700 5696 5693 5688 5683 5679 5675 5672 5667 5662 5658 5654 5650 5647 5643 5639 5635 5633 5629 5629 5632 5633 5634 5635 5637 5640 5644 5647 5649 5651 5653 5655 5657 5663 5671 5679 5687 5697 5703
5700 5697 5694 5691 5687 5682 5680 5675 5670 5666 5662 5657 5652 5648 5643 5639 5635 5631 5627 5623 5621 5619 5616 5614 5617 5618 5619 5620 5622 5626 5630 5634 5637 5640 5643 5645 5649 5652 5658 5666 5674 5682 5690
5690 5686 5682 5678 5674 5670 5665 5661 5656 5652 5648 5643 5637 5633 5628 5623 5620 5616 5613 5610 5607 5605 5603 5603 5602 5603 5605 5607 5609 5612 5616 5620 5625 5629 5634 5636 5638 5642 5647 5652 5660 5668 5676
5679 5675 5669 5665 5661 5655 5651 5647 5642 5637 5632 5627 5622 5617 5612 5608 5605 5602 5599 5597 5594 5592 5590 5589 5590 5590 5591 5593 5594 5598 5602 5607 5612 5617 5621 5625 5630 5633 5638 5644 5650 5657 5664
5666 5662 5658 5653 5648 5642 5637 5632 5627 5621 5615 5610 5605 5600 5595 5591 5587 5585 5583 5582 5581 5578 5577 5576 5576 5576 5578 5579 5581 5584 5588 5592 5598 5604 5610 5615 5620 5625 5629 5634 5642 5648 5652
5655 5651 5645 5640 5635 5629 5623 5617 5611 5604 5598 5592 5586 5580 5575 5572 5569 5567 5566 5566 5566 5564 5564 5564 5563 5563 5564 5566 5568 5571 5574 5579 5584 5589 5595 5600 5605 5612 5618 5623 5628 5633 5640
5645 5638 5633 5627 5621 5615 5609 5603 5594 5588 5581 5575 5569 5564 5561 5555 5553 5549 5547 5548 5550 5551 5552 5551 5551 5551 5551 5553 5555 5557 5560 5564 5569 5575 5582 5587 5592 5599 5605 5612 5619 5626 5633
5632 5627 5620 5614 5607 5601 5595 5590 5585 5575 5569 5564 5557 5551 5546 5542 5537 5533 5531 5532 5535 5537 5539 5540 5540 5540 5540 5541 5542 5544 5548 5552 5556 5561 5567 5574 5580 5587 5594 5600 5607 5615 5623
5622 5615 5608 5602 5597 5590 5585 5580 5575 5570 5565 5557 5549 5543 5537 5532 5526 5522 5520 5520 5523 5524 5527 5528 5529 5529 5530 5530 5531 5534 5537 5540 5545 5550 5556 5561 5568 5575 5582 5588 5595 5603 5611
5611 5605 5599 5593 5588 5583 5578 5573 5569 5563 5557 5551 5544 5536 5530 5525 5520 5516 5513 5512 5513 5514 5516 5518 5519 5520 5521 5522 5523 5525 5527 5531 5535 5540 5545 5551 5557 5564 5571 5578 5586 5592 5599
5602 5596 5591 5586 5582 5577 5572 5567 5562 5557 5551 5544 5536 5531 5525 5520 5516 5512 5509 5507 5506 5505 5505 5508 5509 5511 5512 5514 5516 5518 5520 5523 5527 5532 5537 5542 5548 5554 5561 5567 5575 5582 5589
5595 5589 5584 5580 5575 5571 5566 5562 5557 5552 5546 5539 5533 5528 5523 5518 5513 5509 5506 5502 5499 5498 5497 5497 5500 5502 5504 5507 5509 5512 5514 5517 5521 5525 5529 5534 5540 5545 5551 5557 5565 5573 5581
5589 5584 5578 5574 5569 5565 5561 5557 5553 5547 5541 5535 5529 5525 5520 5514 5509 5504 5501 5496 5491 5489 5489 5489 5491 5493 5496 5499 5502 5505 5508 5511 5515 5519 5523 5526 5531 5536 5542 5549 5555 5562 5572
5585 5579 5573 5568 5564 5560 5556 5552 5548 5543 5537 5531 5525 5521 5517 5512 5506 5500 5496 5491 5487 5484 5482 5482 5482 5483 5487 5491 5494 5498 5501 5504 5509 5513 5517 5520 5522 5526 5530 5537 5545 5552 5562
5580 5575 5569 5564 5559 5555 5552 5548 5545 5540 5534 5528 5523 5518 5514 5508 5503 5497 5492 5487 5482 5477 5473 5472 5473 5474 5477 5482 5486 5490 5494 5498 5502 5505 5507 5509 5512 5516 5521 5528 5535 5543 5554
5576 5571 5566 5560 5556 5551 5547 5544 5541 5537 5532 5527 5522 5516 5511 5505 5499 5494 5488 5483 5478 5472 5466 5462 5462 5464 5468 5474 5479 5484 5488 5492 5496 5498 5501 5503 5506 5510 5515 5523 5530 5539 5549
5571 5567 5561 5556 5551 5547 5543 5540 5537 5534 5530 5525 5520 5515 5509 5504 5498 5492 5485 5479 5473 5466 5459 5453 5452 5455 5460 5466 5472 5478 5484 5488 5491 5494 5498 5502 5505 5509 5515 5522 5530 5538 5547